Location: Riddle Hill
(39.7867°N, 89.7645°W)
Time: 21:52:20
(UTC+00:00)

NOAA 12 - Pass Details

Date: 29 October 2020
Orbit: 795 x 815 km, 98.5° (Epoch: 30 November)

Event Time Altitude Azimuth Distance (km) Brightness Sun altitude
Rises 23:22:19 0° 162° (SSE) 3,306 7.2 -5.0°
Reaches altitude 10° 23:24:38 10° 161° (SSE) 2,382 6.5 -5.4°
Maximum altitude 23:29:54 80° 75° (ENE) 827 4.1 -6.4°
Drops below altitude 10° 23:35:14 10° 349° (N) 2,409 6.6 -7.4°
Sets 23:37:35 0° 349° (NNW) 3,347 7.3 -7.8°
